User: anonymous   Login
Location: Unspecified
(0.0000°N, 0.0000°E)
Time: 13:44:42
(UTC+00:00)
Language:

Hubble Space Telescope - Orbit

View from above orbital plane
View from above orbital plane
View from above satellite
View from above satellite

Ground track
Ground track

The orbit data is extracted from the following two-line orbital elements,

1 20580U 90037B   21101.82451567  .00000524  00000-0  20751-4 0  9997
2 20580  28.4690 145.9322 0002909  67.5903  95.7346 15.09608719501008
Epoch (UTC): 11 April 2021 19:47:18
Eccentricity: 0.0002909
inclination: 28.4690°
perigee height: 535 km
apogee height: 539 km
right ascension of ascending node: 145.9322°
argument of perigee: 67.5903°
revolutions per day: 15.09608719
mean anomaly at epoch: 95.7346°
orbit number at epoch: 50100

The dashed part of the orbit path shows where the satellite is in the earth's shadow,  

DLR